Falfurrias, TX

7:21 AM CST on February 26, 2017 (GMT -0600)
Falfurrias

Weather History for KBKS - March, 2013

Change the Weather History Date:

Monday, March 25, 2013

  Actual Average (KNQI) Record (KNQI)
Temperature  
Mean Temperature 60 °F -  
Max Temperature 68 °F 75 °F 87 °F (2012)
Min Temperature 50 °F 57 °F 37 °F (2006)
Degree Days  
Heating Degree Days 6    
Growing Degree Days 10 (Base 50)    
Moisture  
Dew Point 29 °F    
Average Humidity 33    
Maximum Humidity 47    
Minimum Humidity 17    
Precipitation  
Precipitation 0.00 in - - ()
Sea Level Pressure  
Sea Level Pressure 30.24 in    
Wind  
Wind Speed 10 mph (ENE)    
Max Wind Speed 17 mph    
Max Gust Speed 23 mph    
Visibility 10 miles    
Events      
Averages and records for this station are not official NWS values.
T = Trace of Precipitation, MM = Missing Value Source: NWS Daily Summary

Daily Weather History Graph

Daily Weather History Graph

Search for Another Location

Airport or City:

Trip Planner

Search our weather history database for the weather conditions in past years. The results will help you decide how hot, cold, wet, or windy it might be!

Date:

Astronomy

Mar. 25, 2013 Rise Set
Actual Time 7:30 AM CDT 7:46 PM CDT
Civil Twilight 7:07 AM CDT 8:09 PM CDT
Nautical Twilight 6:40 AM CDT 8:37 PM CDT
Astronomical Twilight 6:12 AM CDT 9:04 PM CDT
Moon 6:24 PM CDT (3/25) 6:07 AM CDT (3/25)
Length of Visible Light 13h 02m
Length of Day
12h 15m
Waxing Gibbous, 96% of the Moon is Illuminated
Mar 25
Waxing Gibbous
Mar 27
Full
Apr 2
Last Quarter
Apr 10
New
Apr 18
First Quarter

Hourly Weather History & Observations

Time (CDT) Temp. Dew Point Humidity Pressure Visibility Wind Dir Wind Speed Gust Speed Precip Events Conditions
12:15 AM 58.1 °F 22.8 °F 26% 30.10 in 10.0 mi NE 9.2 mph 16.1 mph N/A   Scattered Clouds
12:35 AM 57.6 °F 23.5 °F 27% 30.10 in 10.0 mi NE 8.1 mph - N/A   Clear
12:55 AM 57.0 °F 24.3 °F 28% 30.11 in 10.0 mi NE 9.2 mph - N/A   Clear
1:15 AM 57.2 °F 25.9 °F 30% 30.11 in 10.0 mi NNE 11.5 mph - N/A   Clear
1:55 AM 56.5 °F 27.5 °F 33% 30.12 in 10.0 mi NE 9.2 mph - N/A   Clear
2:15 AM 56.3 °F 28.2 °F 34% 30.12 in 10.0 mi NE 13.8 mph - N/A   Clear
2:35 AM 55.8 °F 29.1 °F 36% 30.12 in 10.0 mi NNE 11.5 mph 16.1 mph N/A   Clear
2:55 AM 55.6 °F 29.3 °F 37% 30.12 in 10.0 mi NNE 12.7 mph 19.6 mph N/A   Clear
3:15 AM 55.2 °F 28.9 °F 37% 30.14 in 10.0 mi NE 11.5 mph - N/A   Clear
3:35 AM 54.5 °F 29.1 °F 38% 30.14 in 10.0 mi NNE 10.4 mph - N/A   Clear
3:55 AM 54.0 °F 28.6 °F 38% 30.15 in 10.0 mi NE 10.4 mph - N/A   Clear
4:15 AM 53.6 °F 28.8 °F 39% 30.16 in 10.0 mi NE 10.4 mph - N/A   Clear
4:35 AM 53.4 °F 28.0 °F 38% 30.16 in 10.0 mi NE 12.7 mph 18.4 mph N/A   Clear
4:55 AM 52.7 °F 28.4 °F 39% 30.16 in 10.0 mi NE 9.2 mph - N/A   Clear
5:35 AM 51.4 °F 28.8 °F 42% 30.18 in 10.0 mi NE 8.1 mph - N/A   Clear
5:55 AM 51.1 °F 28.9 °F 43% 30.18 in 10.0 mi NE 10.4 mph - N/A   Clear
6:15 AM 51.3 °F 29.3 °F 43% 30.18 in 10.0 mi NE 9.2 mph - N/A   Clear
6:35 AM 51.8 °F 29.3 °F 42% 30.19 in 10.0 mi NE 9.2 mph - N/A   Mostly Cloudy
6:55 AM 51.6 °F 29.7 °F 43% 30.20 in 10.0 mi NNE 10.4 mph - N/A   Mostly Cloudy
7:15 AM 51.3 °F 30.2 °F 44% 30.21 in 10.0 mi NNE 10.4 mph - N/A   Mostly Cloudy
7:35 AM 51.1 °F 30.6 °F 45% 30.22 in 10.0 mi NE 11.5 mph - N/A   Scattered Clouds
7:55 AM 51.1 °F 30.7 °F 46% 30.23 in 10.0 mi NNE 9.2 mph - N/A   Clear
8:15 AM 51.8 °F 30.9 °F 45% 30.25 in 10.0 mi NNE 10.4 mph - N/A   Mostly Cloudy
8:55 AM 52.9 °F 31.6 °F 44% 30.27 in 10.0 mi NNE 11.5 mph 17.3 mph N/A   Overcast
9:15 AM 54.1 °F 31.3 °F 42% 30.28 in 10.0 mi NNE 13.8 mph 21.9 mph N/A   Overcast
9:35 AM 55.8 °F 29.7 °F 37% 30.29 in 10.0 mi NE 17.3 mph 23.0 mph N/A   Mostly Cloudy
9:55 AM 57.2 °F 30.0 °F 36% 30.30 in 10.0 mi NNE 16.1 mph - N/A   Scattered Clouds
10:15 AM 58.3 °F 31.1 °F 36% 30.31 in 10.0 mi NNE 16.1 mph 23.0 mph N/A   Clear
10:35 AM 59.5 °F 32.0 °F 35% 30.32 in 10.0 mi ENE 13.8 mph 20.7 mph N/A   Clear
10:55 AM 60.8 °F 32.4 °F 34% 30.32 in 10.0 mi NE 12.7 mph 23.0 mph N/A   Clear
11:15 AM 61.2 °F 32.9 °F 35% 30.33 in 10.0 mi NE 12.7 mph 21.9 mph N/A   Clear
11:35 AM 62.6 °F 34.9 °F 36% 30.32 in 10.0 mi NE 12.7 mph 21.9 mph N/A   Clear
11:55 AM 63.0 °F 35.2 °F 36% 30.32 in 10.0 mi NE 11.5 mph 21.9 mph N/A   Clear
12:15 PM 64.9 °F 35.1 °F 33% 30.31 in 10.0 mi ENE 11.5 mph 20.7 mph N/A   Clear
12:35 PM 63.9 °F 33.8 °F 33% 30.31 in 10.0 mi NE 15.0 mph 19.6 mph N/A   Clear
12:55 PM 64.8 °F 34.5 °F 33% 30.30 in 10.0 mi NE 12.7 mph 23.0 mph N/A   Clear
1:15 PM 65.5 °F 34.3 °F 31% 30.29 in 10.0 mi NE 9.2 mph 19.6 mph N/A   Clear
1:35 PM 66.2 °F 33.8 °F 30% 30.28 in 10.0 mi NE 10.4 mph 20.7 mph N/A   Clear
1:55 PM 66.7 °F 32.5 °F 28% 30.27 in 10.0 mi North 10.4 mph 19.6 mph N/A   Clear
2:15 PM 67.3 °F 31.5 °F 26% 30.27 in 10.0 mi NE 9.2 mph 18.4 mph N/A   Clear
2:35 PM 66.9 °F 30.0 °F 25% 30.26 in 10.0 mi ENE 9.2 mph 17.3 mph N/A   Clear
2:55 PM 67.6 °F 30.2 °F 25% 30.25 in 10.0 mi East 13.8 mph 17.3 mph N/A   Clear
3:15 PM 68.0 °F 28.4 °F 23% 30.24 in 10.0 mi East 11.5 mph - N/A   Clear
3:35 PM 67.8 °F 28.2 °F 23% 30.23 in 10.0 mi East 13.8 mph 17.3 mph N/A   Clear
3:55 PM 68.2 °F 26.8 °F 21% 30.22 in 10.0 mi East 5.8 mph 19.6 mph N/A   Clear
4:15 PM 68.5 °F 23.4 °F 18% 30.22 in 10.0 mi ENE 12.7 mph 21.9 mph N/A   Clear
4:35 PM 68.5 °F 23.0 °F 18% 30.22 in 10.0 mi East 12.7 mph - N/A   Clear
4:55 PM 67.8 °F 21.2 °F 17% 30.22 in 10.0 mi East 16.1 mph 19.6 mph N/A   Clear
5:15 PM 67.3 °F 22.6 °F 18% 30.21 in 10.0 mi East 9.2 mph - N/A   Clear
5:35 PM 67.1 °F 22.6 °F 19% 30.21 in 10.0 mi East 15.0 mph 20.7 mph N/A   Clear
5:55 PM 66.6 °F 23.0 °F 19% 30.22 in 10.0 mi East 12.7 mph 18.4 mph N/A   Clear
6:15 PM 66.0 °F 23.5 °F 20% 30.22 in 10.0 mi East 12.7 mph 17.3 mph N/A   Clear
6:35 PM 65.3 °F 24.3 °F 21% 30.22 in 10.0 mi ENE 13.8 mph 18.4 mph N/A   Clear
6:55 PM 63.9 °F 23.9 °F 22% 30.23 in 10.0 mi East 12.7 mph - N/A   Clear
7:15 PM 63.0 °F 25.5 °F 24% 30.24 in 10.0 mi East 12.7 mph - N/A   Clear
7:35 PM 61.7 °F 26.8 °F 27% 30.25 in 10.0 mi East 11.5 mph - N/A   Clear
7:55 PM 60.3 °F 29.3 °F 31% 30.26 in 10.0 mi East 8.1 mph - N/A   Clear
8:15 PM 59.4 °F 29.1 °F 32% 30.27 in 10.0 mi East 8.1 mph - N/A   Clear
8:35 PM 58.8 °F 29.1 °F 32% 30.28 in 10.0 mi East 9.2 mph - N/A   Clear
8:55 PM 58.1 °F 28.9 °F 33% 30.28 in 10.0 mi East 5.8 mph - N/A   Clear
9:15 PM 56.5 °F 29.1 °F 35% 30.29 in 10.0 mi East 4.6 mph - N/A   Clear
9:35 PM 54.9 °F 28.9 °F 37% 30.29 in 10.0 mi East 4.6 mph - N/A   Clear
9:55 PM 54.5 °F 29.5 °F 38% 30.30 in 10.0 mi East 3.5 mph - N/A   Clear
10:15 PM 54.0 °F 30.2 °F 40% 30.32 in 10.0 mi Calm Calm - N/A   Clear
10:35 PM 53.2 °F 30.6 °F 42% 30.32 in 10.0 mi Calm Calm - N/A   Clear
10:55 PM 52.0 °F 30.7 °F 44% 30.32 in 10.0 mi East 3.5 mph - N/A   Clear
11:15 PM 52.9 °F 30.9 °F 43% 30.33 in 10.0 mi Calm Calm - N/A   Clear
11:35 PM 51.6 °F 30.4 °F 44% 30.33 in 10.0 mi Calm Calm - N/A   Clear
11:55 PM 50.9 °F 31.1 °F 47% 30.34 in 10.0 mi Calm Calm - N/A   Clear